PD0GJC-12 Weather Reports


time (UTC)temp
C
wind
direction
speed
KPH
gust
KPH
rain 1hr
cm
rain 24hr
cm
rain mn
cm
humidity
%
barometer
mb
20260507051830 10 0.0 0.0 0.00 0.00 0.00 80 1016.7
20260507050900 8 0.0 0.0 0.00 0.00 0.00 84 1016.6
20260507045830 8 0.0 0.0 0.00 0.00 0.00 86 1016.5
20260507044837 7 0.0 0.0 0.00 0.00 0.00 88 1016.4
20260507043830 6 0.0 0.0 0.00 0.00 0.00 88 1016.3
20260507042835 6 0.0 0.0 0.00 0.00 0.00 88 1016.2
20260507041858 6 0.0 0.0 0.00 0.00 0.00 88 1016.2
20260507040830 5 0.0 0.0 0.00 0.00 0.00 88 1016.1
20260507035830 5 0.0 0.0 0.00 0.00 0.00 87 1016.1
20260507034835 6 0.0 0.0 0.00 0.00 0.00 87 1016.0
20260507033830 6 0.0 0.0 0.00 0.00 0.00 86 1016.0
20260507032830 6 0.0 0.0 0.00 0.00 0.00 86 1016.0
20260507031838 6 0.0 0.0 0.00 0.00 0.00 86 1015.9
20260507030830 6 0.0 3.2 0.00 0.00 0.00 86 1015.9
20260507025835 6 0.0 0.0 0.00 0.00 0.00 86 1015.8
20260507024830 6 0.0 0.0 0.00 0.00 0.00 86 1015.7
20260507023835 6 270 1.6 1.6 0.00 0.00 0.00 85 1015.7
20260507022830 6 0.0 3.2 0.00 0.00 0.00 85 1015.7
20260507021830 6 270 1.6 3.2 0.00 0.00 0.00 85 1015.7
20260507020829 6 0.0 0.0 0.00 0.00 0.00 85 1015.6
20260507015830 6 0.0 1.6 0.00 0.00 0.00 84 1015.4
20260507014830 7 0.0 1.6 0.00 0.00 0.00 84 1015.4
20260507013830 7 276 0.0 3.2 0.00 0.00 0.00 83 1015.3
20260507012844 7 271 1.6 3.2 0.00 0.00 0.00 83 1015.4
20260507011830 7 270 3.2 4.8 0.00 0.00 0.00 82 1015.3
20260507010830 7 271 1.6 1.6 0.00 0.00 0.00 82 1015.3
20260507005830 7 270 3.2 3.2 0.00 0.00 0.00 81 1015.3
20260507004830 7 271 1.6 3.2 0.00 0.00 0.00 82 1015.2
20260507003830 7 271 3.2 4.8 0.00 0.00 0.00 82 1015.2
20260507002830 8 273 1.6 6.4 0.00 0.00 0.00 81 1015.2
20260507001835 8 270 4.8 6.4 0.00 0.00 0.00 82 1015.2
20260507000855 8 272 3.2 6.4 0.00 0.00 0.00 81 1015.0
20260506235835 8 284 4.8 6.4 0.00 0.00 0.00 81 1015.0
20260506234830 8 284 3.2 6.4 0.00 0.00 0.00 81 1015.1
20260506233830 8 284 6.4 9.7 0.00 0.00 0.00 80 1015.0
20260506232831 8 290 8.0 8.0 0.00 0.00 0.00 80 1015.1
20260506231850 8 290 4.8 11.3 0.00 0.00 0.00 80 1015.1
20260506230830 9 115 4.8 12.9 0.00 0.00 0.00 80 1015.0
20260506225830 9 270 4.8 6.4 0.00 0.00 0.00 79 1014.9
20260506224830 9 287 6.4 9.7 0.00 0.00 0.00 79 1015.0
20260506223831 9 287 8.0 12.9 0.00 0.00 0.00 78 1015.0
20260506222832 9 287 4.8 9.7 0.00 0.00 0.00 79 1014.8
20260506221830 9 275 1.6 4.8 0.00 0.00 0.00 79 1014.8
20260506220830 9 273 4.8 11.3 0.00 0.00 0.00 78 1014.7
20260506215830 10 270 4.8 6.4 0.00 0.00 0.00 78 1014.7
20260506214830 9 270 4.8 6.4 0.00 0.00 0.00 77 1014.7
20260506213831 10 270 4.8 8.0 0.00 0.00 0.00 76 1014.5
20260506212835 10 311 4.8 6.4 0.00 0.00 0.00 75 1014.4
20260506211830 10 311 8.0 11.3 0.00 0.00 0.00 74 1014.4
20260506210830 10 311 4.8 8.0 0.00 0.00 0.00 73 1014.3
20260506205835 10 270 6.4 9.7 0.00 0.00 0.00 72 1014.3
20260506204838 11 358 8.0 11.3 0.00 0.00 0.00 71 1014.2
20260506203920 11 358 6.4 9.7 0.00 0.00 0.00 71 1014.1
20260506202830 11 358 6.4 9.7 0.00 0.00 0.00 69 1014.1
20260506201831 11 358 4.8 4.8 0.00 0.00 0.00 66 1014.0
20260506200830 11 358 11.3 14.5 0.00 0.00 0.00 63 1013.9
20260506195831 11 111 8.0 14.5 0.00 0.00 0.00 63 1013.8
20260506194831 12 111 4.8 8.0 0.00 0.00 0.00 63 1013.6
20260506193831 12 111 9.7 14.5 0.00 0.00 0.00 62 1013.6
20260506192836 12 111 6.4 9.7 0.00 0.00 0.00 62 1013.5
20260506191855 12 288 8.0 16.1 0.00 0.00 0.00 61 1013.3
20260506190836 12 288 4.8 11.3 0.00 0.00 0.00 62 1013.2
20260506185831 12 288 8.0 12.9 0.00 0.00 0.00 62 1013.0
20260506184830 12 305 4.8 14.5 0.00 0.00 0.00 62 1012.9
20260506183851 13 298 16.1 19.3 0.00 0.00 0.00 61 1012.9
20260506182836 13 103 9.7 16.1 0.00 0.00 0.00 61 1012.7
20260506181831 13 102 6.4 8.0 0.00 0.00 0.00 60 1012.6
20260506180831 13 290 4.8 8.0 0.00 0.00 0.00 59 1012.5
20260506175831 13 73 9.7 9.7 0.00 0.00 0.00 60 1012.4
20260506174831 13 274 4.8 6.4 0.00 0.00 0.00 61 1012.2
20260506173836 13 128 6.4 14.5 0.00 0.00 0.00 61 1012.2
20260506172836 13 163 4.8 8.0 0.00 0.00 0.00 60 1012.0
20260506171851 13 105 4.8 8.0 0.00 0.00 0.00 59 1011.9
20260506170831 13 192 8.0 12.9 0.00 0.00 0.00 58 1011.9
20260506165830 13 113 12.9 19.3 0.00 0.00 0.00 56 1011.8
20260506164831 13 94 3.2 8.0 0.00 0.00 0.00 54 1011.7
20260506163831 13 167 3.2 11.3 0.00 0.00 0.00 54 1011.8
20260506162831 13 319 6.4 19.3 0.00 0.00 0.00 53 1011.7
20260506161831 13 274 8.0 9.7 0.00 0.00 0.00 52 1011.8
20260506160831 13 101 6.4 9.7 0.00 0.00 0.00 50 1011.6
20260506155831 14 95 9.7 11.3 0.00 0.00 0.00 47 1011.6
20260506154831 14 118 8.0 9.7 0.00 0.00 0.00 46 1011.7
20260506153831 14 113 4.8 11.3 0.00 0.00 0.00 46 1011.7
20260506152859 14 174 6.4 8.0 0.00 0.00 0.00 45 1011.7
20260506151836 14 102 9.7 12.9 0.00 0.00 0.00 44 1011.5
20260506150831 15 96 6.4 12.9 0.00 0.00 0.00 43 1011.5
20260506145831 15 110 9.7 20.9 0.00 0.00 0.00 44 1011.5
20260506144901 15 90 6.4 11.3 0.00 0.00 0.00 44 1011.4
20260506143916 15 96 9.7 11.3 0.00 0.00 0.00 43 1011.4
20260506142831 15 98 12.9 19.3 0.00 0.00 0.00 44 1011.4
20260506141831 15 99 6.4 11.3 0.00 0.00 0.00 44 1011.4
20260506140831 15 98 9.7 12.9 0.00 0.00 0.00 43 1011.4
20260506135831 15 168 8.0 16.1 0.00 0.00 0.00 44 1011.4
20260506134831 15 30 11.3 12.9 0.00 0.00 0.00 45 1011.4
20260506133831 15 172 9.7 22.5 0.00 0.00 0.00 46 1011.3
20260506132851 15 147 8.0 17.7 0.00 0.00 0.00 44 1011.3
20260506131831 15 114 6.4 22.5 0.00 0.00 0.00 45 1011.4
20260506130831 15 158 6.4 16.1 0.00 0.00 0.00 45 1011.2
20260506125831 16 111 6.4 16.1 0.00 0.00 0.00 46 1011.1
20260506124851 15 104 14.5 19.3 0.00 0.00 0.00 45 1011.2
20260506123851 15 140 12.9 19.3 0.00 0.00 0.00 45 1011.1
20260506122833 15 279 8.0 12.9 0.00 0.00 0.00 46 1011.1
20260506121832 15 125 14.5 22.5 0.00 0.00 0.00 43 1011.1
20260506120832 15 121 8.0 17.7 0.00 0.00 0.00 44 1011.1
20260506115832 15 156 14.5 22.5 0.00 0.00 0.00 44 1011.1
20260506114840 15 107 8.0 19.3 0.00 0.00 0.00 46 1011.1
20260506113831 15 100 12.9 22.5 0.00 0.00 0.00 47 1011.0
20260506112836 14 111 8.0 11.3 0.00 0.00 0.00 55 1011.0
20260506111831 15 108 4.8 17.7 0.00 0.00 0.00 54 1011.0
20260506110831 14 108 9.7 11.3 0.00 0.00 0.00 53 1011.0
20260506105952 15 290 8.0 16.1 0.00 0.00 0.00 52 1011.1
20260506104831 15 290 11.3 14.5 0.00 0.00 0.00 54 1011.0
20260506103832 14 276 8.0 11.3 0.00 0.00 0.00 51 1011.1
20260506102831 14 276 9.7 19.3 0.00 0.00 0.00 57 1011.0
20260506101832 14 99 9.7 20.9 0.00 0.00 0.00 63 1011.0
20260506100832 13 276 9.7 14.5 0.00 0.00 0.00 61 1010.9
20260506095831 13 93 12.9 14.5 0.00 0.00 0.00 62 1010.9
20260506094832 13 123 8.0 19.3 0.00 0.00 0.00 64 1010.9
20260506093836 13 289 4.8 14.5 0.00 0.00 0.00 66 1010.8
20260506092857 13 272 6.4 9.7 0.00 0.00 0.00 65 1010.8
20260506091852 14 108 8.0 12.9 0.00 0.00 0.00 63 1010.7
20260506090852 13 153 6.4 11.3 0.00 0.00 0.00 66 1010.7
20260506085832 13 121 16.1 20.9 0.00 0.00 0.00 65 1010.7
20260506084852 13 142 6.4 8.0 0.00 0.00 0.00 68 1010.6
20260506083851 13 323 12.9 17.7 0.00 0.00 0.00 68 1010.6
20260506082831 13 0 8.0 16.1 0.00 0.00 0.00 68 1010.6
20260506081832 13 335 8.0 17.7 0.00 0.00 0.00 68 1010.6
20260506080832 13 116 9.7 11.3 0.00 0.00 0.00 69 1010.6
20260506072832 12 178 11.3 19.3 0.00 0.00 0.00 73 1010.4
20260506071832 12 294 8.0 12.9 0.00 0.00 0.00 75 1010.4
20260506070832 12 294 11.3 19.3 0.00 0.00 0.00 76 1010.3
20260506061932 11 96 6.4 11.3 0.00 0.00 0.00 78 1010.1
20260506060834 11 96 8.0 11.3 0.00 0.00 0.00 78 1010.0